Location: Indian Lodge
(32.1088°N, 97.4892°W)
Time: 10:45:44
(UTC+00:00)

STARLINK-36053 - Pass Details

Date: 11 December 2025
Orbit: 482 x 484 km, 43.0° (Epoch: 18 January)

Event Time Altitude Azimuth Distance (km) Brightness Sun altitude
Exits shadow 10:55:29 21° 117° (ESE) 1,128 4.8 -30.0°
Drops below altitude 10° 10:57:36 10° 86° (E) 1,651 5.9 -29.5°
Enters shadow 11:59:15 -61° 240° (WSW) 11,704 9.3 -16.8°
Maximum altitude 12:33:24 50° 332° (NNW) 614 2.6 -10.0°
